Location: Arrington
(35.8681°N, 86.7092°W)
Time: 14:23:29
(UTC+00:00)

N. Korean satellite - Visible Passes

Search period start: 23 September 2020 00:00
Search period end: 03 October 2020 00:00
Orbit: 455 x 503 km, 97.2° (Epoch: 22 September)

Date Brightness Start Highest point End Pass type
(mag) Time Alt. Az. Time Alt. Az. Time Alt. Az.
23 Sep 7.9 10:58:39 10° NNE 11:02:10 44° E 11:05:35 10° S visible
24 Sep 9.6 10:33:20 10° NE 10:36:03 20° E 10:38:43 10° SE visible
27 Sep 8.7 10:48:09 10° NNE 10:51:24 31° E 10:54:34 10° SSE visible
28 Sep 9.9 10:23:14 10° ENE 10:25:15 14° E 10:27:13 10° SE visible
30 Sep 7.5 11:03:11 10° NNE 11:06:42 52° E 11:10:07 10° S visible
01 Oct 9.3 10:37:43 10° NE 10:40:35 22° E 10:43:23 10° SSE visible
02 Oct 10.4 10:14:15 10° E 10:14:22 10° E 10:14:29 10° E visible
